Saturday, November 22, 2014, 10:00 PM EST

KESN, Easton / Newman Field

Location: Easton, MD, United States Lat: 38.8
Local Time: 10:00 PM EST ( 3:00 GMT) Lon: -76.067
Time Zone: US/Eastern Elev: 72 ft

Show me the last for .
Show Decoded

2014-11-22 05:27 METAR KESN 221027Z AUTO 00000KT 10SM CLR M05/M08 A3057 RMK AO2 T10511076 =
2014-11-22 05:10 METAR KESN 221010Z AUTO 00000KT 10SM CLR M05/M08 A3058 RMK AO2 T10471076 =
2014-11-22 04:50 METAR KESN 220950Z AUTO 00000KT 10SM CLR M05/M08 A3058 RMK AO2 T10491076 =
2014-11-22 04:27 METAR KESN 220930Z AUTO 00000KT 10SM CLR M04/M07 A3057 RMK AO2 T10451074 =
2014-11-22 04:27 METAR KESN 220930Z AUTO 00000KT 10SM CLR M04/M07 A3057 =
2014-11-22 04:10 METAR KESN 220910Z AUTO 00000KT 10SM CLR M05/M07 A3058 =
2014-11-22 04:07 METAR KESN 220910Z AUTO 00000KT 10SM CLR M05/M07 A3058 RMK AO2 T10461071 =
2014-11-22 03:50 METAR KESN 220850Z AUTO 00000KT 10SM CLR M05/M07 A3059 RMK AO2 T10481075 =
2014-11-22 03:28 METAR KESN 220830Z AUTO 00000KT 10SM CLR M04/M07 A3059 =
2014-11-22 03:27 METAR KESN 220830Z AUTO 00000KT 10SM CLR M04/M07 A3059 RMK AO2 T10441073 =
2014-11-22 03:08 METAR KESN 220810Z AUTO 00000KT 10SM CLR M04/M07 A3059 =
2014-11-22 03:07 METAR KESN 220810Z AUTO 00000KT 10SM CLR M04/M07 A3059 RMK AO2 T10451073 =
2014-11-22 02:50 METAR KESN 220750Z AUTO 00000KT 10SM CLR M04/M07 A3059 RMK AO2 T10391074 =
2014-11-22 02:28 METAR KESN 220730Z AUTO 00000KT 10SM CLR M04/M07 A3059 =
2014-11-22 02:27 METAR KESN 220730Z AUTO 00000KT 10SM CLR M04/M07 A3059 RMK AO2 T10411074 =
2014-11-22 02:10 METAR KESN 220710Z AUTO 00000KT 10SM CLR M04/M07 A3059 =
2014-11-22 01:50 METAR KESN 220650Z AUTO 00000KT 10SM CLR M04/M07 A3058 RMK AO2 T10421073 =
2014-11-22 01:27 METAR KESN 220630Z AUTO 00000KT 10SM CLR M04/M07 A3057 =
2014-11-22 01:26 METAR KESN 220630Z AUTO 00000KT 10SM CLR M04/M07 A3057 RMK AO2 T10411073 =
2014-11-22 01:10 METAR KESN 220610Z AUTO 00000KT 10SM CLR M04/M08 A3057 RMK AO2 T10381078 =
2014-11-22 00:50 METAR KESN 220550Z AUTO 00000KT 10SM CLR M04/M08 A3058 RMK AO2 T10371077 =
2014-11-22 00:27 METAR KESN 220530Z AUTO 00000KT 10SM CLR M03/M08 A3058 RMK AO2 T10321080 =
2014-11-22 00:26 METAR KESN 220530Z AUTO 00000KT 10SM CLR M03/M08 A3058 =
2014-11-22 00:10 METAR KESN 220510Z AUTO 00000KT 10SM CLR M03/M08 A3059 RMK AO2 T10341078 =
2014-11-21 23:50 METAR KESN 220450Z AUTO 00000KT 10SM CLR M03/M08 A3058 RMK AO2 T10281080 =
2014-11-21 23:26 METAR KESN 220430Z AUTO 00000KT 10SM CLR M03/M08 A3058 =
2014-11-21 23:24 METAR KESN 220430Z AUTO 00000KT 10SM CLR M03/M08 A3058 RMK AO2 T10351080 =
2014-11-21 23:10 METAR KESN 220410Z AUTO 00000KT 10SM CLR M02/M08 A3059 =
2014-11-21 23:09 METAR KESN 220410Z AUTO 00000KT 10SM CLR M02/M08 A3059 RMK AO2 T10251080 =
2014-11-21 22:50 METAR KESN 220350Z AUTO 06003KT 10SM CLR M04/M08 A3059 RMK AO2 T10381078 =
2014-11-21 22:27 METAR KESN 220330Z AUTO 00000KT 10SM CLR M02/M09 A3059 =
2014-11-21 22:26 METAR KESN 220330Z AUTO 00000KT 10SM CLR M02/M09 A3059 RMK AO2 T10231086 =
2014-11-21 22:10 METAR KESN 220310Z AUTO 00000KT 10SM CLR M02/M09 A3059 =
2014-11-21 22:08 METAR KESN 220310Z AUTO 00000KT 10SM CLR M02/M09 A3059 RMK AO2 T10211086 =

Support USWX by starting your Amazon purchase here.